Flag for United Arab Emirates Weather past 2 weeks in Dubai, Dubai, United Arab Emirates

Now
100 °F

Passing clouds.


Feels Like: 102 °F
Forecast: 97 / 105 °F
Wind: 7 mph from Southwest

Location: Dubai International Airport

Current Time: Jul 30, 2015 at 12:24:10 AM

Latest Report: Jul 30, 2015 at 12:00 AM


Visibility: N/A

Pressure: 29.45 "Hg

Humidity: 29%

Dew point: 63 °F

Historic Weather in Dubai — Graph

°F

Dubai temperature yesterday

Maximum temperature yesterday: 111 °F (at 12:00 PM)
Minimum temperature yesterday: 95 °F (at 5:00 AM)
Average temperature yesterday: 102 °F

Past Weeks' High & Low Weather Summary

 TemperatureHumidityPressure
High113 °F (Jul 24, 2:00 PM)80% (Jul 18, 12:00 AM)29.56 "Hg (Jul 18, 12:00 AM)
Low86 °F (Jul 20, 6:00 AM)10% (Jul 20, 6:00 PM)29.30 "Hg (Jul 17, 4:00 PM)
Average100 °F37%29.44 "Hg
* Reported Jul 14 11:00 PM — Jul 29 11:00 PM, Dubai, Weather by CustomWeather, © 2015

Note: Actual official high and low records may vary slightly from our data, if they occured in-between our weather recording intervals... More about our weather records

Advertising

Dubai weather history for previous 24 hours

 ConditionsComfort  
Time TempWeatherWind HumidityBarometerVisibility
11:00 PM
Wed, Jul 29
102 °FPassing clouds.6 mph27%29.45 "HgN/A
10:00 PM100 °FPassing clouds.5 mph35%29.47 "HgN/A
9:00 PM102 °FPassing clouds.10 mph26%29.47 "HgN/A
8:00 PM104 °FClear.7 mph24%29.42 "Hg10 mi
7:00 PM104 °FPassing clouds.6 mph26%29.42 "HgN/A
6:00 PM104 °FSunny.10 mph28%29.42 "Hg10 mi
5:00 PM104 °FSunny.12 mph33%29.42 "Hg10 mi
4:00 PM104 °FPassing clouds.15 mph33%29.42 "HgN/A
3:00 PM104 °FPassing clouds.17 mph40%29.42 "HgN/A
2:00 PM109 °FPassing clouds.17 mph17%29.45 "HgN/A
1:00 PM109 °FPassing clouds.15 mph23%29.45 "HgN/A
12:00 PM111 °FPassing clouds.13 mph15%29.47 "HgN/A
11:00 AM108 °FPassing clouds.13 mph19%29.47 "HgN/A
10:00 AM106 °FSunny.10 mph20%29.50 "Hg10 mi
9:00 AM102 °FSunny.10 mph24%29.50 "Hg10 mi
8:00 AM100 °FPassing clouds.8 mph25%29.50 "HgN/A
7:00 AM97 °FSunny.7 mph30%29.47 "Hg10 mi
6:00 AM95 °FSunny.6 mph36%29.47 "Hg10 mi
5:00 AM95 °FPassing clouds.7 mph39%29.47 "HgN/A
4:00 AM100 °FPassing clouds.3 mph31%29.45 "HgN/A
3:00 AM97 °FPassing clouds.5 mph37%29.45 "HgN/A
2:00 AM99 °FPassing clouds.6 mph39%29.47 "HgN/A
1:00 AM99 °FPassing clouds.6 mph44%29.47 "HgN/A
12:00 AM99 °FClear.2 mph42%29.47 "Hg10 mi
Weather by CustomWeather, © 2015

See weather overviewHow to use our weather pages